"Pseudo-MPEC" for A115XHV

Created 2024 Apr 21 13:22:05 UT using Find_Orb

Click here for an explanation of pseudo-MPECs

 
 Astrometry: 
     A115XHV* C2024 04 204a0U%YBeqaMfiF't)EyLmuGGw`cl6sHJZYY9Astrometryl!Y=,)W68
     A115XHV  C2024 04 20_Rd350f;#a%8Vh*l;-pP@)i2^PTb39oxM^.9eUjms2R?N_j$%MGkW68
     A115XHV  C2024 04 202$uffc[a-@I@hU6Y#ck/)snMwMyrf#HSi13%LtEOt?=PUv-sB;d)W68
     A115XHV  C2024 04 20m7)lcpIe#redacted;lvjqdpQ^5ohEku37t)!#vl`B00ku37rW/tW68
     A115XHV  C2024 04 20A%Z;u:@xXT5,7k/3]IUGZCG7o%CIZuD]ie5Gs$S0ow-e,.E`QGwFM22
     A115XHV  C2024 04 20LRjXma-8xvWgwPk*:;F7ew0e]24b8f,DY+l1[IxXSDbm9b^;(5%mM22
     A115XHV  C2024 04 20rAY,^qsDiqDIWjZ893KFW3mJPQ?2fDY8@8EXcrRC!!E6m_#+4+y^M22
     A115XHV  C2024 04 205*#GK!=u-[4042eif0YYI\Q/p]b.LFetKgis+JTt4B,yfLcE`g\7M22
     A115XHV  C2024 04 20P,N8;!8OdGOSd8412H-r!sEs++Uv5aKM@]U**^7HaO6L8349-Y2dM22
     A115XHV KC2024 04 20q[a-vf4SlT6G8t+)wFY3LOL`c?GCQMaIb0^hDk4y'[kVAu-A.@n]L29
     A115XHV KC2024 04 20F.FfUCq(+tDa*\PON(/s?uHLVGd9mr:3M]+/hYSPdjZ9rxu'RH!ML29
     A115XHV KC2024 04 20qMDMN.AB[[/.naNK78;K+3#ZoV(p]yw[MLjnHK)Wclick3G+.TWyL29
     A115XHV HC2024 04 20FL$+:(ec^m3um0Wt6!B^Kpmrvy'*0ZP6_5Pgm%mT:ke4'fV@F'6:204
     A115XHV KB2024 04 20Tf95J#o9TiDui7T\r/Qctej;Bhereda#T!W@nljKbDep3/FV9r/jY05
     A115XHV KB2024 04 20[*/E+j`/Ef?03d\Ob!Ev0kRdlE]Uir9yR^^wymB;4;%GYavBuAJkY05
     A115XHV KB2024 04 20gJ(Bm\FSt+PsxL42A:3!UcCr_;R?CmiK5]K)3hcforsgibSdVAe1Y05
     A115XHV KB2024 04 20*b]i#6oC3f9,I?W-RWuo+8GJ#kB4u*Le.4+O+qB7uaH\mZ1?N.fxY05
     A115XHV KC2024 04 201iC-W7)]yyL^)WVKn+gpgZPxQo_[XJJ!W\toeWHe]-n:=sbH`Yiu204
     A115XHV KB2024 04 21.14380 12 08 16.850-29 36 26.39   ~4L3q 15.3 RZNEOCPH36
     A115XHV KB2024 04 21.14458 12 08 14.988-29 35 48.12   ~4L3q 15.4 RZNEOCPH36
     A115XHV KB2024 04 21.14538 12 08 13.121-29 35 09.74   ~4L3q 15.3 RZNEOCPH36
     A115XHV KC2024 04 21cAL3HeHZ6M6G/0ptA?9YasC[6kuI4pfUvyWH8,u(S*lJXgCLFIgtE23
     A115XHV KC2024 04 21FH07x3%HyZyy8;!*!v2TZ$XlexplanationkUrl$`fJ.P;`c@/bUE23
     A115XHV KC2024 04 21.;m#Q$lc2AksfFkX%Qx):NyT7scTNKou(2L`$is_0Xw#/C/.'#\WE23

Station data:
(204) Schiaparelli Observatory  (N45.868292 E8.769720)  Italy.  Observer L.
   Buzzi. 0.60-m f/4.64 Newtonian + CCD0.84-m f/3.5 reflector + CCD.
(E23) Arcadia  (S33.621197 E151.071190)  Australia/NSW.  Observer A. Hidas.
   0.35-m f/1.9 reflector + CCD.
(H36) Sandlot Observatory, Scranton  (N38.797718 W95.706550)  US/Kansas.
   Observer G. Hug. 0.56-m reflector + CCD.
(L29) Drebach-South Observatory, Windhoek  (S23.460100 E18.016900)  Namibia.
   Observer G. Lehmann. 0.4-m f/3.6 reflector + CCD.
(M22) ATLAS South Africa, Sutherland  (S32.380156 E20.810590)  South Africa.
   Observers L. Denneau, R. Siverd, J. Tonry, H. Weiland. Measurers L.
   Denneau, N. Erasmus, A. Fitzsimmons, A. Lawrence, J. Robinson, R. Siverd,
   J. Tonry, H. Weiland. 0.5-m reflector + CCD.
(W68) ATLAS Chile, Rio Hurtado  (S30.471010 W70.764980)  Chile.  Observers L.
   Denneau, R. Siverd, J. Tonry, H. Weiland. Measurers L. Denneau, N.
   Erasmus, A. Fitzsimmons, A. Lawrence, J. Robinson, R. Siverd, J. Tonry, H.
   Weiland. 0.5-m reflector + CCD.
(Y05) SONEAR Wykrota-CEAMIG, Serra da Piedade  (S19.824251 W43.690000)
   Brazil.  Observer C. Jacques. 0.45-m f/2.9 reflector + CMO.

Orbital elements:  A115XHV
   Perihelion 2024 Aug 3.06715 +/- 0.0162 TT =  1:36:41 (JD 2460525.56715)
Epoch 2024 Apr 21.0 TT = JDT 2460421.5   Earth MOID: 0.0075      AutoNEOCP
M 214.38081047 +/- 0.011            (J2000 ecliptic)
n   1.39928103 +/- 0.000114         Peri.  159.20275 +/- 0.0035
a   0.79164915 +/- 4.3e-5           Node   212.61042 +/- 0.00030
e   0.3214226 +/- 0.000103          Incl.   14.06452 +/- 0.007
P   0.70/257.27d           H 23.35  G  0.15   U  6.7
q 0.53719521 +/- 0.000111    Q 1.04610308 +/- 2.68e-5
From 24 observations 2024 Apr. 20-21 (31.1 hr); mean residual 0".39
Residuals in arcseconds: 
240420 W68  .32+  .16-    240420 M22  .16+  .38-    240420 Y05  .46-  .03-    
240420 W68  .06+  .26+    240420 L29  .59-  .79+    240420 204  .15-  .17-    
240420 W68  .10+  .08+    240420 L29  .75-  .94+    240421 H36  .47+  .69-    
240420 W68  .01-  .23+    240420 L29  .66-  .93+    240421 H36  .02+  .11+    
240420 M22  .15+  .67-    240420 204  .06+  .35-    240421 H36  .13+  .04+    
240420 M22  .22+  .51-    240420 Y05  .12+  .11-    240421 E23  .23+  .02-    
240420 M22  .28+  .32-    240420 Y05  .08+  .19-    240421 E23  .21+  .33+    
240420 M22  .50+  .60-    240420 Y05  .02-  .07+    240421 E23  .18-  .03+    

Ephemerides (geocentric):
Date (UTC) HH   RA             Dec           delta  r     elong  mag " sig PA
---- --------  ------------   ------------  ------ ------ -----  --- --------
2024 04 21 13  11 53 45.042   -23 44 34.93  .01604 1.0187 148.4 15.7 .049  60
2024 04 21 14  11 52 14.019   -23 05 58.10  .01595 1.0186 148.2 15.7 .053  41
2024 04 21 15  11 50 42.903   -22 26 52.87  .01587 1.0185 148.0 15.7 .064  26
2024 04 21 16  11 49 11.701   -21 47 19.66  .01578 1.0184 147.7 15.7 .078  14
2024 04 21 17  11 47 40.420   -21 07 18.94  .01570 1.0183 147.5 15.7 .096   6
2024 04 21 18  11 46 09.069   -20 26 51.21  .01563 1.0183 147.2 15.7 .117   0
2024 04 21 19  11 44 37.656   -19 45 57.05  .01555 1.0182 147.0 15.7 .140 176
2024 04 21 20  11 43 06.189   -19 04 37.06  .01548 1.0181 146.7 15.7 .165 173
2024 04 21 21  11 41 34.675   -18 22 51.90  .01542 1.0180 146.3 15.7 .192 170
2024 04 21 22  11 40 03.124   -17 40 42.28  .01535 1.0179 146.0 15.7 .221 168
2024 04 21 23  11 38 31.542   -16 58 08.96  .01529 1.0178 145.7 15.7 .252 167
2024 04 22 00  11 36 59.939   -16 15 12.76  .01523 1.0177 145.3 15.7 .284 165
2024 04 22 01  11 35 28.322   -15 31 54.53  .01517 1.0176 144.9 15.7 .317 164
2024 04 22 02  11 33 56.699   -14 48 15.18  .01512 1.0175 144.5 15.7 .353 163
2024 04 22 03  11 32 25.078   -14 04 15.67  .01507 1.0174 144.1 15.7 .389 163
2024 04 22 04  11 30 53.468   -13 19 56.99  .01502 1.0173 143.7 15.7 .428 162
2024 04 22 05  11 29 21.876   -12 35 20.19  .01498 1.0172 143.2 15.7 .468 162
2024 04 22 06  11 27 50.311   -11 50 26.36  .01494 1.0171 142.7 15.7 .509 161
2024 04 22 07  11 26 18.781   -11 05 16.62  .01490 1.0171 142.3 15.8 .551 161
2024 04 22 08  11 24 47.293   -10 19 52.16  .01487 1.0170 141.8 15.8 .595 160
2024 04 22 09  11 23 15.856   -09 34 14.16  .01484 1.0169 141.3 15.8 .641 160
2024 04 22 10  11 21 44.478   -08 48 23.88  .01481 1.0168 140.7 15.8 .687 160
2024 04 22 11  11 20 13.166   -08 02 22.57  .01478 1.0167 140.2 15.8 .735 160
2024 04 22 12  11 18 41.929   -07 16 11.55  .01476 1.0166 139.7 15.8 .784 159
2024 04 22 13  11 17 10.774   -06 29 52.12  .01475 1.0165 139.1 15.8 .834 159
2024 04 22 14  11 15 39.710   -05 43 25.64  .01473 1.0164 138.5 15.8 .885 159
2024 04 22 15  11 14 08.743   -04 56 53.46  .01472 1.0163 138.0 15.8 .936 159
2024 04 22 16  11 12 37.882   -04 10 16.97  .01471 1.0162 137.4 15.9 .989 159
2024 04 22 17  11 11 07.134   -03 23 37.55  .01471 1.0161 136.8 15.9 1.04 158
2024 04 22 18  11 09 36.508   -02 36 56.59  .01471 1.0160 136.2 15.9 1.10 158
2024 04 22 19  11 08 06.009   -01 50 15.49  .01471 1.0159 135.6 15.9 1.15 158
2024 04 22 20  11 06 35.647   -01 03 35.64  .01472 1.0158 134.9 15.9 1.21 158
2024 04 22 21  11 05 05.427   -00 16 58.45  .01472 1.0157 134.3 15.9 1.26 158
2024 04 22 22  11 03 35.359   +00 29 34.71  .01474 1.0156 133.7 16.0 1.32 158
2024 04 22 23  11 02 05.448   +01 16 02.48  .01475 1.0155 133.1 16.0 1.38 158
2024 04 23 00  11 00 35.701   +02 02 23.48  .01477 1.0154 132.4 16.0 1.43 158
2024 04 23 01  10 59 06.127   +02 48 36.40  .01479 1.0153 131.8 16.0 1.49 157
2024 04 23 02  10 57 36.732   +03 34 39.91  .01482 1.0152 131.1 16.0 1.55 157
2024 04 23 03  10 56 07.523   +04 20 32.74  .01485 1.0151 130.5 16.1 1.60 157
2024 04 23 04  10 54 38.506   +05 06 13.61  .01488 1.0151 129.8 16.1 1.66 157
2024 04 23 05  10 53 09.689   +05 51 41.32  .01491 1.0150 129.1 16.1 1.72 157
2024 04 23 06  10 51 41.077   +06 36 54.67  .01495 1.0149 128.5 16.1 1.77 157
2024 04 23 07  10 50 12.678   +07 21 52.51  .01499 1.0148 127.8 16.2 1.83 157
2024 04 23 08  10 48 44.498   +08 06 33.72  .01504 1.0147 127.2 16.2 1.88 157
2024 04 23 09  10 47 16.543   +08 50 57.24  .01509 1.0146 126.5 16.2 1.94 157
2024 04 23 10  10 45 48.819   +09 35 02.04  .01514 1.0145 125.8 16.2 1.99 156
2024 04 23 11  10 44 21.332   +10 18 47.13  .01519 1.0144 125.2 16.3 2.05 156
2024 04 23 12  10 42 54.089   +11 02 11.59  .01525 1.0143 124.5 16.3 2.10 156